Content
SEND FEEDBACK

Daily
Averages
Monthly
Summary
Canada

MONTREAL, QUEBEC


Home > North America > Canada > Quebec
Elevation: 118 feet     Latitude: 45 28N     Longitude: 073 45W

WEATHER
 
SELECT A DAY
Number of Records: 201,481;   Date Range: 1/1/95 - 10/22/14
 
SHARE

PRINT THIS DATA

[ ← Previous Day ]
WEATHER ALMANAC - FEBRUARY 25, 2013
[ Next Day → ]
[ °C ]   °F
Weather ElementAverageHighLow
Temperature32.1 °F35.6 °F (2:27 pm)30 °F (7:00 am)
Dewpoint29.9 °F32 °F (3:00 pm)28 °F (7:00 am)
Humidity91.3 %100 % (8:00 pm)80 % (1:00 pm)
Barometer30.13 in30.25 in (10:40 pm)29.98 in (12:18 am)
Wind Speed3.2 mph6.9 mph (3:00 pm)
Weather ElementAverage
Visibility7.2 mi
Wind DirectionSW (226.8 °)

Weather ElementTotal
Precipitation---
Heating Degree Days32.2 (Base 65)
Averaged from 37 records on February 25, 2013
WEATHER CONDITIONS BREAKOUT
WIND DIRECTION BREAKOUT
WEATHER BY HOUR - FEBRUARY 25, 2013
[ °C ]   °F
Local TimeTemperatureDewpointHumidityBarometerVisibilityWind DirectionWind SpeedGust SpeedPrecipitationEventsConditions
12:18 AM32.0 °F30.2 °F93 %29.98 in10.0 miNorth (360°)3.5 mphSnowLight Snow
12:48 AM32.0 °F30.2 °F93 %29.99 in10.0 miNW (310°)3.5 mphSnowLight Snow
1:00 AM32.0 °F30.0 °F87 %30.00 in10.0 miNW (310°)2.3 mphSnowLight Snow
1:00 AM32.0 °F30.2 °F93 %29.99 in10.0 miNW (310°)2.3 mphSnowLight Snow
1:38 AM32.0 °F30.2 °F93 %30.00 in10.0 miWest (280°)4.6 mphSnowLight Snow
2:00 AM32.0 °F30.2 °F93 %30.01 in10.0 miNNW (330°)4.6 mphSnowLight Snow
3:00 AM32.0 °F28.4 °F87 %30.02 in12.0 miNorth (360°)4.6 mphSnowLight Snow
3:53 AM30.2 °F28.4 °F93 %30.04 in12.0 miNorth (350°)4.6 mphSnowLight Snow
4:00 AM30.2 °F28.4 °F93 %30.04 in12.0 miNorth (350°)4.6 mphSnowSnow
5:00 AM30.2 °F28.4 °F93 %30.06 in12.0 miNNW (340°)5.8 mphSnowLight Snow
6:00 AM30.2 °F28.4 °F93 %30.07 in15.0 miNorth (350°)4.6 mphSnowLight Snow
7:00 AM30.0 °F28.0 °F90 %30.10 in7.0 miNNW (330°)3.5 mphSnowLight Snow
7:00 AM30.2 °F28.4 °F93 %30.10 in8.0 miNNW (340°)4.6 mphSnowLight Snow
8:00 AM30.2 °F28.4 °F93 %30.11 in8.0 miNorth (360°)4.6 mphSnowLight Snow
9:00 AM30.2 °F28.4 °F93 %30.12 in8.0 miNNE (30°)3.5 mphSnowLight Snow
10:00 AM32.0 °F28.4 °F87 %30.14 in5.0 miNorth (360°)3.5 mphSnowLight Snow
10:47 AM32.0 °F28.4 °F87 %30.15 in4.0 miNNW (330°)2.3 mphSnowLight Snow
11:00 AM32.0 °F28.4 °F87 %30.15 in4.0 miCalmSnowLight Snow
12:00 PM33.8 °F28.4 °F81 %30.16 in4.0 miCalmSnowLight Snow
1:00 PM34.0 °F30.0 °F80 %30.16 in4.0 miWest (280°)3.5 mphSnowLight Snow
1:00 PM33.8 °F30.2 °F87 %30.16 in4.0 miWNW (290°)3.5 mphSnowLight Snow
1:29 PM33.8 °F30.2 °F87 %30.16 in5.0 miCalmSnowLight Snow
2:00 PM33.8 °F30.2 °F87 %30.16 in5.0 miCalmSnowLight Snow
2:27 PM35.6 °F30.2 °F81 %30.17 in6.0 miVariable2.3 mphSnowLight Snow
3:00 PM33.8 °F32.0 °F93 %30.18 in5.0 miSW (230°)6.9 mphSnowLight Snow
4:00 PM33.8 °F32.0 °F93 %30.19 in6.0 miSW (230°)4.6 mphSnowLight Snow
5:00 PM33.8 °F32.0 °F93 %30.20 in8.0 miWSW (240°)2.3 mphOvercast
6:00 PM33.8 °F32.0 °F93 %30.21 in7.0 miCalmOvercast
7:00 PM32.0 °F30.2 °F93 %30.23 in8.0 miSW (220°)3.5 mphOvercast
7:00 PM33.0 °F31.0 °F89 %30.23 in7.0 miSW (220°)4.6 mphPartly Cloudy
7:42 PM32.0 °F30.2 °F93 %30.24 in6.0 miSW (220°)3.5 mphSnowLight Snow
8:00 PM32.0 °F32.0 °F100 %30.24 in6.0 miSW (220°)3.5 mphSnowLight Snow
9:00 PM32.0 °F30.2 °F93 %30.24 in6.0 miSW (220°)3.5 mphSnowLight Snow
10:00 PM32.0 °F32.0 °F100 %30.24 in4.0 miSouth (180°)2.3 mphSnowLight Snow
10:40 PM30.2 °F30.2 °F100 %30.25 in3.0 miSW (230°)3.5 mphSnowLight Snow
11:00 PM32.0 °F32.0 °F100 %30.25 in2.5 miSSW (210°)3.5 mphSnowLight Snow
11:39 PM32.0 °F30.2 °F93 %30.25 in3.0 miCalmOvercast
Hourly data recorded from CYUL, located miles away from Montreal, Quebec







STORIES FROM OUR PARTNERS